Temperature
6 5 5 5 5 6 6 6 5 6 7 7 6 7 8 8 8 8 9 9 9 10 11 11 11 11 11 11 12 12 12 12 12 12 12 12 12 12 13 13 13 13 12 12
5 5 6 6 6 6 6 5 5 6 7 7 6 6 7 7 7 8 8 9 9 9 10 10 11 11 11 11 11 11 11 11 12 12 12 11 12 12 13 13 12 12 12 12
6 6 7 7 6 6 5 5 5 6 6 6 6 6 7 7 8 8 8 9 9 9 9 10 10 11 11 11 11 11 11 11 11 11 11 11 11 11 12 12 12 12 12 12
5 6 6 6 6 6 6 6 6 6 5 4 5 5 6 6 6 7 7 8 9 9 9 10 10 10 11 11 11 11 11 11 11 11 11 10 10 11 11 12 12 12 12 12
5 6 6 6 6 6 6 6 6 5 5 4 4 4 5 6 6 7 7 8 8 9 9 9 10 10 10 10 10 11 11 11 10 10 10 10 10 10 11 11 11 12 12 12
5 6 6 6 6 6 6 5 5 4 3 4 4 4 5 5 6 7 7 8 8 8 9 9 9 9 10 10 10 10 10 10 10 10 10 10 10 10 10 10 11 11 11 11
5 5 6 6 6 6 5 5 4 4 3 4 5 4 5 6 6 6 6 7 8 8 8 9 9 9 9 9 9 10 10 10 10 10 10 10 10 10 10 10 10 10 10 11
4 5 5 5 6 5 5 5 4 4 4 4 4 5 5 6 6 6 7 7 7 8 8 8 8 8 9 9 9 9 9 9 9 9 9 9 9 9 9 10 10 10 10 10
4 4 5 5 6 6 5 4 4 4 3 3 4 4 4 6 5 5 6 6 6 7 7 8 8 8 8 8 8 9 9 9 9 9 9 9 9 9 9 9 9 9 10 10
4 4 4 4 5 5 5 4 3 3 3 3 4 3 4 5 5 5 5 5 6 7 7 7 7 7 8 8 8 8 8 8 9 9 8 8 9 9 9 9 9 9 10 10
3 3 3 4 4 4 4 4 3 3 3 3 4 5 5 5 5 5 4 5 6 6 7 7 7 7 7 8 8 8 8 8 8 8 8 8 8 9 9 9 9 9 9 10
3 2 2 2 3 4 4 3 3 3 2 2 2 5 6 5 4 4 4 5 6 6 6 6 6 7 7 7 7 7 7 7 7 7 7 7 8 8 8 8 8 9 9 9
3 2 2 3 3 2 2 2 2 2 2 2 3 5 5 4 4 4 5 5 5 6 6 6 6 6 6 6 6 7 7 7 7 7 7 7 7 7 7 8 8 8 8 8
4 1 2 3 3 2 1 2 2 2 2 2 2 4 5 5 4 4 5 5 5 5 5 5 5 5 6 6 6 6 6 6 6 6 6 6 7 7 7 7 7 7 8 8
3 2 1 1 2 2 2 2 2 2 2 2 3 3 4 4 4 4 4 4 4 4 4 5 5 5 5 5 6 6 6 6 6 6 6 6 6 6 6 7 7 7 7 7
1 1 1 1 2 1 2 2 2 2 2 2 2 3 4 4 4 3 4 3 3 4 4 4 4 5 5 5 5 5 5 5 5 5 5 6 5 5 6 6 6 6 6 7
1 1 1 1 1 1 1 2 2 2 2 2 2 3 3 3 3 3 3 3 3 4 4 4 4 4 4 4 4 5 5 5 5 5 5 5 5 5 5 5 5 6 6 6
1 0 1 0 -0 0 2 2 2 2 2 2 2 3 2 3 3 3 4 4 4 4 4 4 4 4 4 4 4 4 4 5 5 4 4 5 5 5 5 5 5 5 5 6
1 1 1 0 -0 0 1 2 2 1 2 2 2 2 2 3 2 3 4 4 4 4 3 4 3 3 3 4 4 4 4 4 4 4 4 4 4 4 4 5 5 5 5 5
0 1 1 0 0 0 2 3 2 2 1 2 2 2 2 1 1 2 4 4 4 4 3 3 3 3 3 3 3 3 3 3 3 4 4 4 4 4 4 4 4 4 4 5
-1 -0 0 0 0 1 2 2 2 1 2 3 2 2 2 1 2 3 3 3 3 3 3 3 3 3 3 3 3 2 3 3 3 3 3 3 3 4 4 4 4 4 4 4
-1 -1 -1 -0 0 1 2 1 1 2 3 3 3 3 3 3 3 3 3 3 3 3 3 2 2 2 2 2 2 2 2 2 2 2 3 3 3 3 3 3 3 3 3 3
-0 0 -0 0 2 2 2 3 4 4 3 4 4 4 3 3 3 3 2 2 2 2 2 2 2 2 2 2 2 1 2 2 2 2 2 2 3 3 3 3 3 3 3 3
-2 -1 -1 -1 -0 0 2 3 3 3 3 4 3 3 3 2 2 2 2 2 2 2 2 2 1 1 1 1 1 1 1 1 1 1 2 2 2 2 2 2 2 2 2 2
-1 -2 -2 -1 -1 -0 2 3 3 3 3 3 3 2 2 2 2 2 2 2 1 1 1 1 1 1 1 1 1 1 1 1 1 1 1 1 1 1 2 2 2 2 2 2
-2 -1 -1 -0 0 0 1 3 3 3 2 2 2 2 2 1 1 1 1 1 1 1 1 0 0 0 0 0 0 0 -0 -0 0 0 0 0 1 1 1 1 1 1 1 2
Wind_Speed
2 1 5 8 8 6 4 6 11 12 9 8 13 18 20 16 11 11 10 10 10 11 10 9 8 7 7 7 7 7 7 7 7 6 6 6 7 7 7 8 10 12 12 13
1 5 8 5 5 5 7 9 11 11 6 8 13 18 17 13 10 9 9 9 9 9 9 8 7 6 6 7 7 7 7 7 8 7 7 6 6 6 8 7 8 11 12 13
6 5 2 3 4 5 7 8 8 10 11 7 9 11 8 7 6 7 7 7 6 7 9 9 7 6 6 7 7 7 8 8 9 8 5 4 4 3 4 6 7 9 11 13
5 5 3 4 5 5 7 7 8 9 7 6 3 8 8 6 7 7 7 6 6 7 7 8 7 6 6 7 6 7 7 8 8 8 8 9 8 8 8 7 7 8 10 12
5 3 3 5 6 6 7 4 5 6 5 6 4 5 9 5 6 7 6 6 6 6 7 8 6 6 6 6 5 5 5 6 6 7 9 9 9 9 6 6 7 8 9 11
5 3 4 5 3 4 3 3 3 2 1 4 4 5 7 4 6 7 6 6 6 7 7 6 5 5 5 5 4 4 4 5 5 6 8 9 10 8 7 8 8 8 7 8
5 4 3 2 1 1 2 3 4 5 3 6 2 4 8 8 6 6 7 7 7 7 6 5 5 5 5 5 5 5 5 5 5 6 7 8 10 9 10 9 9 8 7 8
3 6 4 2 4 3 2 4 3 3 5 6 4 6 7 7 6 5 4 4 5 6 5 5 5 5 5 5 6 5 5 6 6 6 6 7 8 7 7 8 8 8 8 9
5 6 3 2 2 5 3 3 4 3 3 5 6 7 8 6 6 5 5 6 6 6 6 5 5 5 5 5 6 6 6 6 6 7 7 7 7 7 8 8 8 7 7 7
6 5 4 3 0 1 3 4 3 2 3 6 7 5 5 6 6 6 6 6 7 7 7 6 5 6 6 6 6 4 5 5 5 5 6 5 6 7 8 7 8 8 7 7
4 4 4 2 5 6 3 3 3 3 3 4 6 7 5 5 5 4 6 6 7 8 8 7 6 6 6 6 5 4 4 4 4 4 5 5 6 6 6 6 7 7 7 6
5 3 5 7 5 3 5 6 6 4 6 5 5 9 4 5 5 4 6 7 7 8 7 7 7 7 6 7 6 5 4 4 5 5 5 6 6 5 5 6 7 7 7 7
6 4 2 5 3 0 2 4 4 4 4 6 8 10 3 4 7 6 7 8 8 8 8 8 7 7 7 7 7 6 5 5 5 5 6 5 5 5 6 6 6 7 7 7
5 5 8 10 7 4 5 6 5 5 7 9 12 16 16 13 12 10 9 9 8 9 9 8 8 7 7 7 6 6 5 5 5 5 5 5 5 5 6 6 6 6 7 8
5 6 8 10 8 7 10 12 11 13 13 13 15 18 21 15 12 11 10 9 9 10 9 9 8 8 7 7 7 6 6 6 5 5 5 5 6 5 5 6 6 6 7 8
5 5 4 7 8 9 15 17 17 17 15 17 19 22 18 13 9 9 9 9 9 9 9 9 8 8 7 7 7 7 7 7 5 5 5 5 5 5 5 5 5 5 6 6
5 5 3 7 5 5 12 13 14 10 10 11 16 17 12 9 10 9 8 7 8 9 9 9 8 7 7 7 7 6 7 7 5 5 5 5 5 5 6 5 5 5 6 6
7 6 4 4 1 10 9 4 8 11 13 13 13 13 11 10 9 8 7 7 8 8 8 8 7 7 7 6 6 6 6 6 5 5 6 6 5 6 6 5 6 6 5 5
10 8 5 4 6 10 9 5 6 7 9 9 12 13 10 6 5 6 6 6 7 8 8 7 7 6 6 7 7 6 6 6 6 6 7 7 6 6 6 6 6 6 5 6
7 8 7 5 6 8 8 4 4 2 7 7 7 8 6 1 3 6 5 5 7 7 6 6 5 5 6 7 6 5 7 6 7 8 7 7 7 6 7 7 6 5 5 6
6 6 10 10 9 9 8 4 5 4 8 4 4 5 4 5 7 7 6 6 6 7 7 6 5 5 6 6 5 6 7 7 8 8 7 7 7 6 7 6 5 6 6 6
10 8 8 7 9 11 6 7 8 9 5 4 4 5 6 7 8 8 7 7 7 7 7 6 5 6 6 5 4 6 8 8 7 7 7 7 7 6 6 6 6 6 6 6
10 11 8 11 11 6 7 9 8 5 6 6 6 7 7 7 8 8 7 8 8 8 7 6 6 7 7 6 4 6 8 8 7 7 7 8 8 6 6 5 6 5 5 4
6 5 5 7 10 10 9 8 8 7 9 9 8 7 6 8 9 9 8 7 7 7 7 6 6 7 8 7 6 7 8 7 6 7 7 7 7 7 6 5 5 4 4 5
8 6 6 9 9 8 9 10 11 11 9 8 8 8 8 9 9 9 8 8 7 7 7 5 6 7 8 8 7 7 7 6 6 7 7 7 6 6 6 6 5 6 5 6
8 9 9 11 10 8 9 8 8 9 10 9 9 8 8 7 8 8 7 7 7 7 6 6 6 7 8 7 8 7 6 6 6 6 6 6 5 5 5 6 7 8 8 9
Wind_Direction
105 122 224 222 214 228 253 263 274 273 280 284 271 277 285 288 283 276 271 266 268 270 270 273 268 260 258 243 233 227 221 217 202 199 203 212 214 214 215 213 206 203 204 202
57 242 235 224 221 233 252 270 276 286 283 282 281 280 279 275 266 262 262 266 272 284 293 291 283 268 257 244 236 231 225 222 211 205 206 214 213 216 219 214 208 205 206 205
216 239 218 207 232 245 255 245 263 280 307 294 297 292 283 285 278 276 266 265 268 272 281 287 284 274 266 251 238 238 231 227 223 211 206 216 213 217 217 213 211 209 209 208
244 257 226 230 242 220 268 244 257 281 303 298 334 301 286 282 294 285 282 285 279 281 282 283 283 278 275 263 251 244 234 229 226 212 205 209 215 220 224 219 218 218 214 212
253 236 223 238 243 204 241 275 270 277 268 285 254 248 288 303 298 292 286 286 287 287 287 285 281 275 273 271 254 248 237 227 226 214 209 215 224 227 229 225 218 221 220 214
252 254 224 226 253 214 254 335 320 352 59 281 242 212 288 275 272 295 298 298 303 298 299 296 288 284 278 283 274 257 241 237 236 222 214 218 225 227 229 229 220 221 223 217
302 279 252 198 316 4 77 50 354 345 341 260 263 237 260 272 282 284 291 300 306 305 301 301 307 305 298 298 287 274 253 244 241 228 226 225 224 220 226 228 223 222 224 225
284 287 242 201 196 196 187 149 175 252 265 289 295 251 262 282 299 305 304 310 324 321 319 310 305 301 295 294 286 273 263 253 242 230 236 233 228 224 231 230 226 225 226 228
206 263 286 241 220 162 163 202 188 190 271 278 271 283 302 307 323 336 339 340 327 318 322 318 322 321 308 298 290 277 265 258 244 236 241 241 235 235 239 237 230 230 232 232
176 255 274 295 344 243 184 161 116 168 263 274 283 275 272 302 306 322 331 327 318 319 321 319 319 315 309 303 297 291 275 253 252 247 241 250 246 245 240 234 232 232 232 231
168 214 290 314 204 203 160 161 174 190 207 232 281 271 233 246 267 287 305 312 313 317 317 316 309 305 310 315 312 305 298 281 270 264 259 259 258 259 252 241 238 237 236 230
179 171 255 253 249 209 190 192 171 203 247 228 255 271 251 244 267 284 300 309 313 314 317 321 321 319 321 318 311 304 296 290 285 277 267 259 258 258 254 253 248 244 239 233
157 155 287 319 328 99 220 215 200 213 232 235 249 267 300 308 309 305 301 303 307 312 316 320 324 323 324 322 317 312 301 286 286 289 283 272 264 258 259 258 259 251 243 239
161 181 206 230 239 216 246 245 220 212 242 254 246 266 285 293 295 298 299 298 301 304 310 314 317 313 314 316 320 321 313 301 296 295 294 284 275 268 265 262 260 259 249 239
166 222 233 249 256 249 251 255 241 232 235 246 263 267 275 281 283 285 289 296 301 303 309 313 314 311 314 319 321 320 312 305 299 294 293 287 283 279 277 268 262 262 257 243
180 222 237 265 254 254 265 258 247 245 243 247 262 270 271 274 277 280 283 288 294 298 302 307 310 311 313 312 313 317 313 310 303 296 293 295 295 292 286 283 278 266 263 257
188 190 221 266 279 299 264 246 236 231 224 225 247 259 274 282 281 279 280 282 284 290 295 299 300 298 300 304 305 307 306 312 311 304 299 297 292 289 290 293 292 286 277 268
186 190 220 256 277 251 251 217 218 237 249 238 247 261 268 268 277 277 266 265 276 283 289 293 296 298 301 303 305 305 309 312 313 309 302 298 290 285 289 292 286 283 282 276
196 195 208 213 242 269 283 255 205 221 263 241 244 260 267 277 307 294 268 254 259 271 280 283 285 290 299 302 303 310 312 312 312 306 299 296 291 284 284 283 282 283 284 280
191 196 211 216 235 250 253 230 188 163 275 258 231 251 265 278 304 286 289 286 284 286 288 288 295 306 308 305 309 315 311 310 306 301 299 295 290 284 282 281 282 283 280 277
170 196 217 228 242 260 252 212 134 191 250 259 218 236 241 220 233 263 288 291 287 290 291 294 301 304 297 302 311 308 306 300 295 299 303 299 293 285 281 284 286 286 284 284
182 188 202 204 228 249 213 156 191 224 239 239 239 239 241 245 257 270 278 283 287 290 292 293 296 297 298 303 305 303 301 298 302 307 309 309 303 295 290 286 287 284 281 281
203 199 197 203 223 240 195 207 223 219 234 243 243 249 249 257 267 273 274 277 282 283 286 289 285 292 299 299 289 289 293 304 311 314 312 310 310 306 300 290 289 286 276 273
239 208 201 238 255 256 250 249 254 244 243 249 246 250 253 258 265 270 274 278 282 285 288 288 288 292 296 299 293 282 292 305 309 308 308 309 311 310 309 301 290 282 271 267
218 190 212 243 262 278 263 248 250 253 253 256 257 252 252 256 264 265 271 275 276 283 286 285 281 284 289 297 299 299 302 305 303 301 302 305 305 303 305 302 291 285 271 262
203 197 210 242 236 230 252 251 244 246 251 254 258 265 259 248 259 267 270 272 276 281 284 286 285 288 294 300 300 303 304 302 299 301 302 303 305 306 303 304 305 292 281 283
Height
1473 1477 1477 1474 1474 1473 1474 1474 1472 1465 1459 1459 1453 1445 1436 1431 1430 1427 1424 1423 1422 1421 1420 1420 1420 1419 1419 1420 1421 1420 1422 1423 1425 1427 1429 1431 1432 1435 1437 1440 1443 1446 1449 1452
1475 1475 1470 1469 1471 1472 1473 1473 1469 1461 1456 1454 1448 1440 1431 1427 1425 1422 1421 1419 1418 1417 1415 1415 1415 1415 1414 1415 1415 1415 1416 1418 1419 1421 1423 1426 1427 1429 1432 1434 1437 1440 1443 1446
1472 1469 1466 1467 1468 1470 1469 1470 1465 1462 1456 1452 1450 1438 1428 1422 1420 1418 1417 1416 1415 1415 1413 1411 1411 1410 1410 1410 1411 1411 1412 1413 1415 1417 1418 1421 1423 1424 1426 1427 1430 1434 1437 1440
1470 1466 1466 1466 1466 1466 1466 1461 1460 1459 1461 1459 1454 1448 1429 1423 1419 1415 1414 1413 1412 1411 1410 1408 1407 1406 1406 1406 1407 1407 1408 1409 1410 1411 1413 1415 1416 1417 1419 1421 1423 1427 1430 1433
1467 1464 1464 1464 1461 1461 1461 1458 1458 1458 1460 1461 1455 1454 1433 1425 1420 1413 1411 1410 1409 1408 1407 1406 1404 1404 1403 1403 1403 1403 1403 1404 1405 1406 1408 1410 1411 1412 1414 1416 1417 1421 1423 1426
1465 1462 1461 1460 1458 1458 1458 1459 1459 1461 1463 1463 1452 1454 1437 1426 1418 1413 1410 1408 1407 1406 1404 1403 1401 1401 1400 1399 1399 1399 1399 1399 1400 1401 1402 1404 1405 1407 1408 1409 1411 1414 1416 1419
1465 1461 1458 1457 1458 1458 1460 1465 1469 1468 1471 1462 1448 1447 1434 1419 1415 1412 1410 1408 1406 1404 1401 1400 1398 1398 1397 1396 1396 1396 1395 1395 1396 1397 1397 1399 1400 1401 1402 1403 1405 1407 1409 1411
1468 1464 1457 1456 1456 1459 1460 1463 1470 1472 1469 1458 1448 1442 1427 1416 1413 1410 1409 1407 1405 1402 1400 1398 1397 1395 1394 1393 1392 1392 1391 1391 1392 1392 1393 1394 1395 1396 1397 1398 1399 1400 1402 1404
1468 1463 1456 1454 1454 1456 1460 1462 1461 1467 1467 1466 1449 1438 1425 1414 1411 1409 1408 1406 1404 1402 1399 1397 1396 1394 1393 1391 1389 1388 1387 1387 1388 1388 1388 1389 1389 1390 1391 1392 1393 1394 1396 1398
1462 1465 1458 1455 1454 1454 1455 1458 1465 1466 1467 1460 1448 1441 1429 1417 1413 1410 1407 1405 1403 1401 1399 1396 1394 1392 1390 1388 1386 1385 1384 1384 1384 1384 1385 1385 1385 1385 1385 1386 1387 1388 1389 1391
1459 1464 1460 1457 1455 1455 1457 1459 1460 1464 1463 1462 1451 1433 1418 1415 1411 1410 1408 1405 1402 1400 1397 1394 1393 1390 1388 1385 1383 1382 1381 1380 1380 1380 1380 1380 1380 1380 1380 1380 1381 1382 1383 1385
1457 1463 1463 1458 1451 1450 1451 1453 1457 1462 1462 1461 1454 1430 1411 1411 1409 1407 1406 1404 1402 1399 1396 1393 1390 1388 1385 1383 1381 1379 1378 1377 1376 1376 1376 1375 1375 1375 1374 1374 1375 1376 1377 1378
1455 1462 1464 1457 1456 1454 1453 1452 1452 1454 1456 1454 1447 1426 1411 1410 1408 1406 1405 1402 1400 1397 1394 1391 1388 1385 1383 1380 1378 1376 1375 1374 1373 1372 1371 1370 1370 1369 1369 1369 1370 1370 1371 1372
1449 1455 1457 1453 1449 1451 1452 1450 1450 1452 1451 1444 1435 1421 1411 1409 1407 1405 1403 1400 1397 1395 1392 1389 1385 1383 1380 1378 1376 1374 1372 1371 1370 1369 1367 1365 1365 1365 1365 1365 1364 1364 1365 1365
1446 1450 1451 1448 1445 1446 1444 1442 1443 1444 1440 1437 1423 1418 1407 1405 1404 1402 1399 1397 1394 1391 1388 1385 1383 1380 1377 1375 1373 1371 1370 1368 1367 1365 1363 1362 1361 1361 1360 1360 1359 1359 1359 1360
1443 1446 1447 1445 1441 1442 1438 1432 1431 1430 1429 1426 1420 1411 1402 1401 1400 1398 1396 1394 1391 1388 1386 1383 1380 1378 1375 1373 1371 1368 1367 1365 1363 1361 1360 1359 1358 1357 1356 1355 1354 1354 1354 1354
1441 1444 1445 1442 1440 1439 1432 1420 1419 1419 1416 1417 1413 1404 1398 1398 1396 1394 1392 1391 1389 1386 1384 1381 1378 1376 1373 1371 1369 1366 1364 1362 1360 1358 1357 1356 1355 1353 1352 1351 1350 1349 1349 1348
1436 1440 1441 1441 1443 1439 1415 1410 1410 1410 1407 1406 1403 1398 1396 1395 1392 1391 1389 1388 1386 1383 1381 1378 1376 1373 1371 1369 1366 1363 1361 1359 1357 1355 1354 1352 1351 1350 1348 1347 1346 1345 1344 1343
1427 1432 1436 1438 1438 1425 1412 1406 1406 1408 1403 1398 1397 1393 1392 1391 1390 1387 1385 1384 1383 1381 1378 1376 1373 1371 1368 1366 1363 1361 1358 1356 1354 1352 1351 1349 1348 1346 1344 1343 1342 1340 1339 1338
1424 1426 1431 1431 1431 1422 1406 1400 1399 1403 1402 1392 1391 1390 1389 1390 1392 1386 1382 1381 1379 1377 1375 1373 1370 1368 1366 1363 1361 1358 1355 1353 1351 1349 1347 1345 1344 1342 1340 1339 1337 1336 1335 1333
1424 1425 1424 1424 1422 1411 1399 1397 1399 1407 1398 1388 1387 1387 1387 1387 1386 1383 1380 1378 1377 1374 1372 1370 1367 1365 1363 1361 1358 1355 1352 1350 1348 1346 1343 1341 1339 1337 1336 1334 1333 1332 1330 1328
1413 1418 1419 1418 1416 1406 1391 1394 1396 1391 1385 1384 1384 1383 1383 1381 1380 1379 1377 1375 1373 1371 1369 1367 1364 1362 1360 1357 1355 1352 1349 1347 1345 1342 1340 1337 1335 1333 1331 1329 1327 1326 1325 1323
1402 1400 1400 1400 1394 1386 1384 1384 1382 1382 1382 1381 1380 1379 1379 1377 1376 1375 1373 1371 1369 1367 1365 1363 1360 1358 1356 1354 1352 1348 1346 1344 1341 1338 1336 1333 1331 1328 1327 1325 1322 1321 1320 1319
1395 1392 1394 1393 1386 1381 1380 1379 1379 1379 1378 1376 1376 1375 1375 1373 1371 1370 1368 1366 1364 1362 1360 1358 1356 1354 1352 1350 1348 1345 1342 1340 1337 1334 1332 1330 1327 1324 1322 1321 1319 1317 1315 1314
1386 1388 1388 1386 1380 1377 1374 1373 1373 1373 1372 1371 1371 1370 1369 1368 1366 1365 1363 1361 1359 1357 1356 1354 1352 1349 1347 1345 1343 1341 1338 1336 1333 1330 1328 1325 1323 1320 1318 1316 1315 1313 1311 1311
1378 1380 1382 1376 1372 1372 1368 1368 1368 1367 1367 1366 1365 1364 1363 1363 1361 1360 1358 1356 1354 1352 1351 1349 1347 1345 1343 1341 1338 1336 1334 1331 1329 1326 1323 1321 1319 1316 1314 1312 1310 1308 1307 1306